sat.trackr.live / text

‹ back to catalog

STARLINK-34444

NORAD 64369 · 2025-126AB

PAYLOAD ACTIVE UNKNOWN

§ Identity

Operator
Country
US
Launch date
2025-06-13
Launch site
AFWTR
Launch vehicle
Mass (kg)
RCS (m²)

Purposes: comms

External: N2YO · Heavens-Above · Gunter

§ Orbital elements

Epoch: 2026-05-24T21:31:20.237664Z

Period
96.11 min
Inclination
70.0005°
Eccentricity
0.0003747
Mean motion
14.98334729 rev/d
Perigee alt
569.4 km
Apogee alt
574.6 km
Semi-major
6,950.2 km
B*
2.8391e-4
RAAN
202.4379°
Arg perigee
267.5900°
Mean anomaly
92.4830°
Rev number
5,209

§ Raw data

STARLINK-344441 64369U 25126AB  26144.89676201  .00003297  00000+0  28391-3 0  99962 64369  70.0005 202.4379 0003747 267.5900  92.4830 14.98334729 52091

JSON: /api/v1/satellites/64369 · /tle

For live sub-satellite position, see the globe view (requires WebGL).

§ Visibility from observer

Set your observer location to see the next 7 days of passes ≥ 10°. The values pass through the URL so the page stays shareable.

No JS? Fill the form by hand. The geolocation button needs JavaScript.